• In Hungary
  • List of Countries
  • For 7 days
  • Water Temperature
  • Satellite Maps
  • Weather Map
  • News
  • Weather Widgets
  • user-avatar
    Login

    Hourly Weather Shapovalovo

    Today, 21 October, Sunday

    Time Temperature Precipitation Wind Pressure Humidity
    00:00 +8°C° 0 mm 4 mps 745 mmHg 52%
    01:00 +7°C° 0 mm 4 mps 745 mmHg 55%
    02:00 +7°C° 0 mm 4 mps 745 mmHg 57%
    03:00 +8°C° 0 mm 3 mps 745 mmHg 60%
    04:00 +7°C° 0 mm 3 mps 745 mmHg 62%
    05:00 +7°C° 0 mm 3 mps 746 mmHg 65%
    06:00 +7°C° 0 mm 2 mps 746 mmHg 68%
    07:00 +7°C° 0 mm 2 mps 746 mmHg 71%
    08:00 +8°C° 0 mm 2 mps 746 mmHg 69%
    09:00 +9°C° 0 mm 2 mps 747 mmHg 68%
    10:00 +10°C° 0 mm 2 mps 747 mmHg 66%
    11:00 +12°C° 0 mm 2 mps 747 mmHg 61%
    12:00 +12°C° 0 mm 3 mps 747 mmHg 56%
    13:00 +13°C° 0 mm 3 mps 748 mmHg 52%
    14:00 +12°C° 0 mm 3 mps 748 mmHg 50%
    15:00 +12°C° 0 mm 3 mps 748 mmHg 48%
    16:00 +12°C° 0 mm 3 mps 748 mmHg 46%
    17:00 +11°C° 0 mm 3 mps 749 mmHg 50%
    18:00 +10°C° 0 mm 3 mps 749 mmHg 55%
    19:00 +8°C° 0 mm 3 mps 749 mmHg 59%
    20:00 +8°C° 0 mm 3 mps 750 mmHg 62%
    21:00 +7°C° 0 mm 3 mps 750 mmHg 64%
    22:00 +5°C° 0 mm 3 mps 750 mmHg 67%
    23:00 +5°C° 0 mm 3 mps 750 mmHg 70%

    Tomorrow, 22 October, Monday

    Time Temperature Precipitation Wind Pressure Humidity
    00:00 +4°C° 0 mm 3 mps 751 mmHg 73%
    01:00 +4°C° 0 mm 3 mps 751 mmHg 75%
    02:00 +3°C° 0 mm 3 mps 751 mmHg 76%
    03:00 +3°C° 0 mm 3 mps 751 mmHg 76%
    04:00 +3°C° 0 mm 3 mps 751 mmHg 77%
    05:00 +2°C° 0 mm 3 mps 752 mmHg 77%
    06:00 +2°C° 0 mm 3 mps 752 mmHg 78%
    07:00 +2°C° 0 mm 3 mps 752 mmHg 79%
    08:00 +3°C° 0 mm 3 mps 752 mmHg 72%
    09:00 +4°C° 0 mm 3 mps 752 mmHg 65%
    10:00 +5°C° 0 mm 3 mps 753 mmHg 58%
    11:00 +7°C° 0 mm 3 mps 753 mmHg 53%
    12:00 +8°C° 0 mm 3 mps 753 mmHg 48%
    13:00 +9°C° 0 mm 3 mps 753 mmHg 43%
    14:00 +9°C° 0 mm 3 mps 753 mmHg 42%
    15:00 +9°C° 0 mm 3 mps 752 mmHg 41%
    16:00 +9°C° 0 mm 2 mps 752 mmHg 40%
    17:00 +8°C° 0 mm 3 mps 752 mmHg 43%
    18:00 +7°C° 0 mm 3 mps 752 mmHg 46%
    19:00 +5°C° 0 mm 3 mps 753 mmHg 49%
    20:00 +4°C° 0 mm 3 mps 753 mmHg 50%
    21:00 +5°C° 0 mm 2 mps 753 mmHg 51%
    22:00 +4°C° 0 mm 2 mps 753 mmHg 52%
    23:00 +4°C° 0 mm 2 mps 753 mmHg 53%

    Day after tomorrow, 23 October, Tuesday

    Time Temperature Precipitation Wind Pressure Humidity
    00:00 +4°C° 0 mm 2 mps 753 mmHg 54%
    01:00 +3°C° 0 mm 2 mps 752 mmHg 56%
    02:00 +3°C° 0 mm 2 mps 752 mmHg 58%
    03:00 +3°C° 0 mm 2 mps 752 mmHg 60%
    04:00 +3°C° 0 mm 2 mps 752 mmHg 62%
    05:00 +1°C° 0 mm 3 mps 752 mmHg 64%
    06:00 +1°C° 0 mm 3 mps 752 mmHg 65%
    07:00 +1°C° 0 mm 3 mps 752 mmHg 67%
    08:00 +3°C° 0 mm 3 mps 752 mmHg 62%
    09:00 +4°C° 0 mm 4 mps 751 mmHg 58%
    10:00 +6°C° 0 mm 4 mps 751 mmHg 53%
    11:00 +8°C° 0 mm 4 mps 751 mmHg 50%
    12:00 +9°C° 0 mm 5 mps 750 mmHg 47%
    13:00 +12°C° 0 mm 5 mps 750 mmHg 44%
    14:00 +12°C° 0 mm 5 mps 749 mmHg 45%
    15:00 +12°C° 0 mm 4 mps 749 mmHg 45%
    16:00 +13°C° 0 mm 4 mps 748 mmHg 46%
    17:00 +12°C° 0 mm 4 mps 748 mmHg 50%
    18:00 +11°C° 0 mm 4 mps 748 mmHg 54%
    19:00 +10°C° 0 mm 4 mps 748 mmHg 58%
    20:00 +10°C° 0 mm 4 mps 747 mmHg 61%
    21:00 +9°C° 0 mm 5 mps 747 mmHg 64%
    22:00 +9°C° 0 mm 6 mps 747 mmHg 66%
    23:00 +9°C° 0 mm 6 mps 746 mmHg 66%

    24 October, Wednesday

    Time Temperature Precipitation Wind Pressure Humidity
    00:00 +9°C° 0 mm 6 mps 746 mmHg 65%
    01:00 +10°C° 0 mm 6 mps 746 mmHg 65%
    02:00 +9°C° 0 mm 6 mps 746 mmHg 67%
    03:00 +9°C° 0 mm 7 mps 745 mmHg 69%
    04:00 +9°C° 0 mm 7 mps 745 mmHg 71%
    05:00 +9°C° 0 mm 7 mps 745 mmHg 71%
    06:00 +9°C° 0 mm 7 mps 744 mmHg 71%
    07:00 +7°C° 0 mm 8 mps 744 mmHg 70%
    08:00 +9°C° 0 mm 8 mps 744 mmHg 65%
    09:00 +10°C° 0 mm 8 mps 744 mmHg 60%
    10:00 +10°C° 0 mm 8 mps 744 mmHg 55%
    11:00 +11°C° 0 mm 8 mps 743 mmHg 51%
    12:00 +13°C° 0 mm 8 mps 743 mmHg 46%
    13:00 +15°C° 0 mm 8 mps 743 mmHg 42%
    14:00 +15°C° 0 mm 8 mps 742 mmHg 41%
    15:00 +15°C° 0 mm 7 mps 742 mmHg 40%
    16:00 +16°C° 0 mm 6 mps 742 mmHg 40%
    17:00 +15°C° 0 mm 6 mps 742 mmHg 42%
    18:00 +14°C° 0 mm 6 mps 742 mmHg 45%
    19:00 +13°C° 0 mm 6 mps 742 mmHg 48%
    20:00 +13°C° 0 mm 6 mps 742 mmHg 49%
    21:00 +13°C° 0 mm 6 mps 742 mmHg 49%
    22:00 +12°C° 0 mm 7 mps 742 mmHg 49%
    23:00 +12°C° 0 mm 7 mps 742 mmHg 51%

    25 October, Thursday

    Time Temperature Precipitation Wind Pressure Humidity
    00:00 +11°C° 0 mm 6 mps 742 mmHg 53%
    01:00 +11°C° 0 mm 6 mps 742 mmHg 55%
    02:00 +11°C° 0 mm 6 mps 742 mmHg 58%
    03:00 +10°C° 0 mm 6 mps 742 mmHg 61%
    04:00 +10°C° 0 mm 6 mps 742 mmHg 65%
    05:00 +9°C° 0 mm 6 mps 742 mmHg 66%
    06:00 +8°C° 0 mm 7 mps 742 mmHg 68%
    07:00 +8°C° 0 mm 7 mps 742 mmHg 69%
    08:00 +9°C° 0 mm 7 mps 742 mmHg 61%
    09:00 +10°C° 0 mm 8 mps 742 mmHg 53%
    10:00 +12°C° 0 mm 9 mps 742 mmHg 44%
    11:00 +13°C° 0 mm 9 mps 741 mmHg 40%
    12:00 +15°C° 0 mm 9 mps 741 mmHg 35%
    13:00 +17°C° 0 mm 9 mps 741 mmHg 30%
    14:00 +17°C° 0 mm 9 mps 740 mmHg 30%
    15:00 +17°C° 0 mm 9 mps 740 mmHg 30%
    16:00 +16°C° 0 mm 8 mps 740 mmHg 29%
    17:00 +15°C° 0 mm 9 mps 740 mmHg 31%
    18:00 +15°C° 0 mm 9 mps 739 mmHg 33%
    19:00 +13°C° 0 mm 9 mps 739 mmHg 34%
    20:00 +12°C° 0 mm 9 mps 739 mmHg 35%
    21:00 +12°C° 0 mm 9 mps 739 mmHg 36%
    22:00 +11°C° 0 mm 9 mps 739 mmHg 36%
    23:00 +11°C° 0 mm 9 mps 738 mmHg 36%

    26 October, Friday

    Time Temperature Precipitation Wind Pressure Humidity
    00:00 +11°C° 0 mm 9 mps 738 mmHg 36%
    01:00 +11°C° 0 mm 9 mps 738 mmHg 36%
    02:00 +11°C° 0 mm 9 mps 737 mmHg 37%
    03:00 +11°C° 0 mm 9 mps 737 mmHg 38%
    04:00 +11°C° 0 mm 9 mps 736 mmHg 39%
    05:00 +11°C° 0.3 mm 8 mps 736 mmHg 41%
    06:00 +11°C° 0.3 mm 8 mps 735 mmHg 44%
    07:00 +11°C° 0.3 mm 8 mps 735 mmHg 47%
    08:00 +12°C° 0 mm 9 mps 734 mmHg 43%
    09:00 +15°C° 0 mm 9 mps 734 mmHg 40%
    10:00 +16°C° 0 mm 10 mps 734 mmHg 37%
    11:00 +17°C° 0 mm 10 mps 734 mmHg 37%
    12:00 +18°C° 0 mm 9 mps 734 mmHg 37%
    13:00 +19°C° 0 mm 9 mps 733 mmHg 38%
    14:00 +20°C° 0 mm 8 mps 734 mmHg 41%
    15:00 +19°C° 0 mm 6 mps 734 mmHg 44%
    16:00 +19°C° 0 mm 5 mps 734 mmHg 47%
    17:00 +16°C° 0 mm 6 mps 734 mmHg 51%
    18:00 +14°C° 0 mm 7 mps 735 mmHg 56%
    19:00 +11°C° 0 mm 7 mps 736 mmHg 61%
    20:00 +10°C° 0 mm 7 mps 737 mmHg 58%
    21:00 +9°C° 0 mm 6 mps 737 mmHg 55%
    22:00 +8°C° 0 mm 5 mps 738 mmHg 52%
    23:00 +8°C° 0 mm 5 mps 739 mmHg 52%
    Show more